"Period start","avg(HW err(1)/warn(2) (#))","avg(Visibility (m))","avg(Weather code (#))","avg(Precip intensity (mm/h))","min(HW err(1)/warn(2) (#))","max(HW err(1)/warn(2) (#))","std(HW err(1)/warn(2) (#))","med(HW err(1)/warn(2) (#))","min(Visibility (m))","max(Visibility (m))","std(Visibility (m))","med(Visibility (m))","min(Weather code (#))","max(Weather code (#))","std(Weather code (#))","med(Weather code (#))","min(Precip intensity (mm/h))","max(Precip intensity (mm/h))","std(Precip intensity (mm/h))","med(Precip intensity (mm/h))"
2014-11-02 00:00:00,2,50000,0,0.00,2,2,0,2,50000,50000,0,50000,0,0,0,0,0.00,0.00,0.00,0.00
2014-11-02 00:10:00,2,49879,0,0.00,2,2,0,2,49227,50000,254,50000,0,0,0,0,0.00,0.00,0.00,0.00
2014-11-02 00:20:00,2,46972,0,0.00,2,2,0,2,38905,50000,3461,48046,0,0,0,0,0.00,0.00,0.00,0.00
2014-11-02 00:30:00,2,49983,0,0.00,2,2,0,2,49827,50000,52,50000,0,0,0,0,0.00,0.00,0.00,0.00
2014-11-02 00:40:00,2,49767,0,0.00,2,2,0,2,47951,50000,611,50000,0,0,0,0,0.00,0.00,0.00,0.00
2014-11-02 00:50:00,2,49698,0,0.00,2,2,0,2,48383,50000,606,50000,0,0,0,0,0.00,0.00,0.00,0.00
2014-11-02 01:00:00,2,48790,0,0.00,2,2,0,2,46103,50000,1208,48734,0,0,0,0,0.00,0.00,0.00,0.00
2014-11-02 01:10:00,2,41054,0,0.00,2,2,0,2,33679,49381,4253,40820,0,0,0,0,0.00,0.00,0.00,0.00
2014-11-02 01:20:00,2,47336,0,0.00,2,2,0,2,36005,50000,4666,50000,0,0,0,0,0.00,0.00,0.00,0.00
2014-11-02 01:30:00,2,49967,0,0.00,2,2,0,2,49667,50000,100,50000,0,0,0,0,0.00,0.00,0.00,0.00
2014-11-02 01:40:00,2,47772,0,0.00,2,2,0,2,41985,50000,2990,49440,0,0,0,0,0.00,0.00,0.00,0.00
2014-11-02 01:50:00,2,36222,0,0.00,2,2,0,2,24972,50000,8176,34928,0,0,0,0,0.00,0.00,0.00,0.00
2014-11-02 02:00:00,2,33070,0,0.00,2,2,0,2,27230,43885,4553,32270,0,0,0,0,0.00,0.00,0.00,0.00
2014-11-02 02:10:00,2,25762,0,0.00,2,2,0,2,19139,32017,3889,24898,0,0,0,0,0.00,0.00,0.00,0.00
2014-11-02 02:20:00,2,47434,0,0.00,2,2,0,2,40708,50000,2524,47822,0,0,0,0,0.00,0.00,0.00,0.00
2014-11-02 02:30:00,2,49768,0,0.00,2,2,0,2,47682,50000,695,50000,0,0,0,0,0.00,0.00,0.00,0.00
2014-11-02 02:40:00,2,43238,0,0.00,2,2,0,2,33641,49611,4260,43956,0,0,0,0,0.00,0.00,0.00,0.00
2014-11-02 02:50:00,2,28341,0,0.00,2,2,0,2,24106,33661,2944,27657,0,0,0,0,0.00,0.00,0.00,0.00
2014-11-02 03:00:00,2,38818,0,0.00,2,2,0,2,31647,44270,4420,39936,0,0,0,0,0.00,0.00,0.00,0.00
2014-11-02 03:10:00,2,20591,0,0.00,2,2,0,2,15106,31935,5448,17276,0,0,0,0,0.00,0.00,0.00,0.00
2014-11-02 03:20:00,2,27257,0,0.00,2,2,0,2,21259,36348,5016,26114,0,0,0,0,0.00,0.00,0.00,0.00
2014-11-02 03:30:00,2,40389,0,0.00,2,2,0,2,34169,49412,5708,39502,0,0,0,0,0.00,0.00,0.00,0.00
2014-11-02 03:40:00,2,43702,0,0.00,2,2,0,2,32829,50000,5292,43508,0,0,0,0,0.00,0.00,0.00,0.00
2014-11-02 03:50:00,2,39011,0,0.00,2,2,0,2,23894,50000,8331,42694,0,0,0,0,0.00,0.00,0.00,0.00
2014-11-02 04:00:00,2,43374,0,0.00,2,2,0,2,30989,50000,6521,44462,0,0,0,0,0.00,0.00,0.00,0.00
2014-11-02 04:10:00,2,50000,0,0.00,2,2,0,2,50000,50000,0,50000,0,0,0,0,0.00,0.00,0.00,0.00
2014-11-02 04:20:00,2,50000,0,0.00,2,2,0,2,50000,50000,0,50000,0,0,0,0,0.00,0.00,0.00,0.00
2014-11-02 04:30:00,2,50000,0,0.00,2,2,0,2,50000,50000,0,50000,0,0,0,0,0.00,0.00,0.00,0.00
2014-11-02 04:40:00,2,50000,0,0.00,2,2,0,2,50000,50000,0,50000,0,0,0,0,0.00,0.00,0.00,0.00
2014-11-02 04:50:00,2,49820,0,0.00,2,2,0,2,48196,50000,541,50000,0,0,0,0,0.00,0.00,0.00,0.00
2014-11-02 05:00:00,2,50000,0,0.00,2,2,0,2,50000,50000,0,50000,0,0,0,0,0.00,0.00,0.00,0.00
2014-11-02 05:10:00,2,50000,0,0.00,2,2,0,2,50000,50000,0,50000,0,0,0,0,0.00,0.00,0.00,0.00
2014-11-02 05:20:00,2,50000,0,0.00,2,2,0,2,50000,50000,0,50000,0,0,0,0,0.00,0.00,0.00,0.00
2014-11-02 05:30:00,2,50000,0,0.00,2,2,0,2,50000,50000,0,50000,0,0,0,0,0.00,0.00,0.00,0.00
2014-11-02 05:40:00,2,50000,0,0.00,2,2,0,2,50000,50000,0,50000,0,0,0,0,0.00,0.00,0.00,0.00
2014-11-02 05:50:00,2,50000,0,0.00,2,2,0,2,50000,50000,0,50000,0,0,0,0,0.00,0.00,0.00,0.00
2014-11-02 06:00:00,2,49980,0,0.00,2,2,0,2,49798,50000,61,50000,0,0,0,0,0.00,0.00,0.00,0.00
2014-11-02 06:10:00,2,50000,0,0.00,2,2,0,2,50000,50000,0,50000,0,0,0,0,0.00,0.00,0.00,0.00
2014-11-02 06:20:00,2,50000,0,0.00,2,2,0,2,50000,50000,0,50000,0,0,0,0,0.00,0.00,0.00,0.00
2014-11-02 06:30:00,2,50000,0,0.00,2,2,0,2,50000,50000,0,50000,0,0,0,0,0.00,0.00,0.00,0.00
2014-11-02 06:40:00,2,50000,0,0.00,2,2,0,2,50000,50000,0,50000,0,0,0,0,0.00,0.00,0.00,0.00
2014-11-02 06:50:00,2,50000,0,0.00,2,2,0,2,50000,50000,0,50000,0,0,0,0,0.00,0.00,0.00,0.00
2014-11-02 07:00:00,2,50000,0,0.00,2,2,0,2,50000,50000,0,50000,0,0,0,0,0.00,0.00,0.00,0.00
2014-11-02 07:10:00,2,50000,0,0.00,2,2,0,2,50000,50000,0,50000,0,0,0,0,0.00,0.00,0.00,0.00
2014-11-02 07:20:00,2,50000,0,0.00,2,2,0,2,50000,50000,0,50000,0,0,0,0,0.00,0.00,0.00,0.00
2014-11-02 07:30:00,2,50000,0,0.00,2,2,0,2,50000,50000,0,50000,0,0,0,0,0.00,0.00,0.00,0.00
2014-11-02 07:40:00,2,50000,0,0.00,2,2,0,2,50000,50000,0,50000,0,0,0,0,0.00,0.00,0.00,0.00
2014-11-02 07:50:00,2,41301,0,0.00,2,2,0,2,23692,50000,7946,41995,0,0,0,0,0.00,0.00,0.00,0.00
2014-11-02 08:00:00,2,15348,0,0.00,2,2,0,2,10087,21958,3288,15582,0,0,0,0,0.00,0.00,0.00,0.00
2014-11-02 08:10:00,2,9718,0,0.00,2,2,0,2,8862,10478,533,9834,0,0,0,0,0.00,0.00,0.00,0.00
2014-11-02 08:20:00,2,10845,0,0.00,2,2,0,2,10087,11627,544,10818,0,0,0,0,0.00,0.00,0.00,0.00
2014-11-02 08:30:00,2,12702,0,0.00,2,2,0,2,9784,17962,3174,10950,0,0,0,0,0.00,0.00,0.00,0.00
2014-11-02 08:40:00,2,22194,0,0.00,2,2,0,2,16467,38136,6121,20471,0,0,0,0,0.00,0.00,0.00,0.00
2014-11-02 08:50:00,2,29143,0,0.00,2,2,0,2,16838,43330,9561,24912,0,0,0,0,0.00,0.00,0.00,0.00
2014-11-02 09:00:00,2,41304,0,0.00,2,2,0,2,36046,47084,3347,40500,0,0,0,0,0.00,0.00,0.00,0.00
2014-11-02 09:10:00,2,21565,0,0.00,2,2,0,2,14703,41089,7497,19296,0,0,0,0,0.00,0.00,0.00,0.00
2014-11-02 09:20:00,2,17404,0,0.00,2,2,0,2,11896,21532,2942,18352,0,0,0,0,0.00,0.00,0.00,0.00
2014-11-02 09:30:00,2,13844,0,0.00,2,2,0,2,11648,19187,2168,13271,0,0,0,0,0.00,0.00,0.00,0.00
2014-11-02 09:40:00,2,21395,0,0.00,2,2,0,2,13172,27738,4656,21254,0,0,0,0,0.00,0.00,0.00,0.00
2014-11-02 09:50:00,2,38646,0,0.00,2,2,0,2,25045,48529,7830,42164,0,0,0,0,0.00,0.00,0.00,0.00
2014-11-02 10:00:00,2,45739,0,0.00,2,2,0,2,37164,50000,4255,46056,0,0,0,0,0.00,0.00,0.00,0.00
2014-11-02 10:10:00,2,24666,0,0.00,2,2,0,2,13871,41659,9766,22654,0,0,0,0,0.00,0.00,0.00,0.00
2014-11-02 10:20:00,2,42765,0,0.00,2,2,0,2,24124,50000,9859,49844,0,0,0,0,0.00,0.00,0.00,0.00
2014-11-02 10:30:00,2,49993,0,0.00,2,2,0,2,49927,50000,22,50000,0,0,0,0,0.00,0.00,0.00,0.00
2014-11-02 10:40:00,2,49623,0,0.00,2,2,0,2,46272,50000,1117,50000,0,0,0,0,0.00,0.00,0.00,0.00
2014-11-02 10:50:00,2,50000,0,0.00,2,2,0,2,50000,50000,0,50000,0,0,0,0,0.00,0.00,0.00,0.00
2014-11-02 11:00:00,2,50000,0,0.00,2,2,0,2,50000,50000,0,50000,0,0,0,0,0.00,0.00,0.00,0.00
2014-11-02 11:10:00,2,50000,0,0.00,2,2,0,2,50000,50000,0,50000,0,0,0,0,0.00,0.00,0.00,0.00
2014-11-02 11:20:00,2,50000,0,0.00,2,2,0,2,50000,50000,0,50000,0,0,0,0,0.00,0.00,0.00,0.00
2014-11-02 11:30:00,2,50000,0,0.00,2,2,0,2,50000,50000,0,50000,0,0,0,0,0.00,0.00,0.00,0.00
2014-11-02 11:40:00,2,50000,0,0.00,2,2,0,2,50000,50000,0,50000,0,0,0,0,0.00,0.00,0.00,0.00
2014-11-02 11:50:00,2,50000,0,0.00,2,2,0,2,50000,50000,0,50000,0,0,0,0,0.00,0.00,0.00,0.00
2014-11-02 12:00:00,2,50000,0,0.00,2,2,0,2,50000,50000,0,50000,0,0,0,0,0.00,0.00,0.00,0.00
2014-11-02 12:10:00,2,50000,0,0.00,2,2,0,2,50000,50000,0,50000,0,0,0,0,0.00,0.00,0.00,0.00
2014-11-02 12:20:00,2,49972,0,0.00,2,2,0,2,49715,50000,86,50000,0,0,0,0,0.00,0.00,0.00,0.00
2014-11-02 12:30:00,2,50000,0,0.00,2,2,0,2,50000,50000,0,50000,0,0,0,0,0.00,0.00,0.00,0.00
2014-11-02 12:40:00,2,50000,0,0.00,2,2,0,2,50000,50000,0,50000,0,0,0,0,0.00,0.00,0.00,0.00
2014-11-02 12:50:00,2,49816,0,0.00,2,2,0,2,48156,50000,553,50000,0,0,0,0,0.00,0.00,0.00,0.00
2014-11-02 13:00:00,2,50000,0,0.00,2,2,0,2,50000,50000,0,50000,0,0,0,0,0.00,0.00,0.00,0.00
2014-11-02 13:10:00,2,49757,0,0.00,2,2,0,2,47566,50000,730,50000,0,0,0,0,0.00,0.00,0.00,0.00
2014-11-02 13:20:00,2,50000,0,0.00,2,2,0,2,50000,50000,0,50000,0,0,0,0,0.00,0.00,0.00,0.00
2014-11-02 13:30:00,2,50000,0,0.00,2,2,0,2,50000,50000,0,50000,0,0,0,0,0.00,0.00,0.00,0.00
2014-11-02 13:40:00,2,50000,0,0.00,2,2,0,2,50000,50000,0,50000,0,0,0,0,0.00,0.00,0.00,0.00
2014-11-02 13:50:00,2,50000,0,0.00,2,2,0,2,50000,50000,0,50000,0,0,0,0,0.00,0.00,0.00,0.00
2014-11-02 14:00:00,2,50000,0,0.00,2,2,0,2,50000,50000,0,50000,0,0,0,0,0.00,0.00,0.00,0.00
2014-11-02 14:10:00,2,49979,0,0.00,2,2,0,2,49794,50000,62,50000,0,0,0,0,0.00,0.00,0.00,0.00
2014-11-02 14:20:00,2,49755,0,0.00,2,2,0,2,48233,50000,547,50000,0,0,0,0,0.00,0.00,0.00,0.00
2014-11-02 14:30:00,2,42741,0,0.00,2,2,0,2,35424,50000,5538,42248,0,0,0,0,0.00,0.00,0.00,0.00
2014-11-02 14:40:00,2,47158,0,0.00,2,2,0,2,41538,50000,2793,47986,0,0,0,0,0.00,0.00,0.00,0.00
2014-11-02 14:50:00,2,40500,0,0.00,2,2,0,2,31934,46260,3775,41686,0,0,0,0,0.00,0.00,0.00,0.00
2014-11-02 15:00:00,2,33619,0,0.00,2,2,0,2,29126,44419,4597,32506,0,0,0,0,0.00,0.00,0.00,0.00
2014-11-02 15:10:00,2,48806,0,0.00,2,2,0,2,45229,50000,1800,49992,0,0,0,0,0.00,0.00,0.00,0.00
2014-11-02 15:20:00,2,50000,0,0.00,2,2,0,2,50000,50000,0,50000,0,0,0,0,0.00,0.00,0.00,0.00
2014-11-02 15:30:00,2,50000,0,0.00,2,2,0,2,50000,50000,0,50000,0,0,0,0,0.00,0.00,0.00,0.00
2014-11-02 15:40:00,2,50000,0,0.00,2,2,0,2,50000,50000,0,50000,0,0,0,0,0.00,0.00,0.00,0.00
2014-11-02 15:50:00,2,50000,0,0.00,2,2,0,2,50000,50000,0,50000,0,0,0,0,0.00,0.00,0.00,0.00
2014-11-02 16:00:00,2,50000,0,0.00,2,2,0,2,50000,50000,0,50000,0,0,0,0,0.00,0.00,0.00,0.00
2014-11-02 16:10:00,2,50000,0,0.00,2,2,0,2,50000,50000,0,50000,0,0,0,0,0.00,0.00,0.00,0.00
2014-11-02 16:20:00,2,50000,0,0.00,2,2,0,2,50000,50000,0,50000,0,0,0,0,0.00,0.00,0.00,0.00
2014-11-02 16:30:00,2,50000,0,0.00,2,2,0,2,50000,50000,0,50000,0,0,0,0,0.00,0.00,0.00,0.00
2014-11-02 16:40:00,2,50000,0,0.00,2,2,0,2,50000,50000,0,50000,0,0,0,0,0.00,0.00,0.00,0.00
2014-11-02 16:50:00,2,50000,0,0.00,2,2,0,2,50000,50000,0,50000,0,0,0,0,0.00,0.00,0.00,0.00
2014-11-02 17:00:00,2,50000,0,0.00,2,2,0,2,50000,50000,0,50000,0,0,0,0,0.00,0.00,0.00,0.00
2014-11-02 17:10:00,2,50000,0,0.00,2,2,0,2,50000,50000,0,50000,0,0,0,0,0.00,0.00,0.00,0.00
2014-11-02 17:20:00,2,28571,0,0.00,1,2,0,2,0,50000,24744,50000,0,0,0,0,0.00,0.00,0.00,0.00
2014-11-02 17:30:00,2,50000,0,0.00,2,2,0,2,50000,50000,0,50000,0,0,0,0,0.00,0.00,0.00,0.00
2014-11-02 17:40:00,2,50000,0,0.00,2,2,0,2,50000,50000,0,50000,0,0,0,0,0.00,0.00,0.00,0.00
2014-11-02 17:50:00,2,50000,0,0.00,2,2,0,2,50000,50000,0,50000,0,0,0,0,0.00,0.00,0.00,0.00
2014-11-02 18:00:00,2,50000,0,0.00,2,2,0,2,50000,50000,0,50000,0,0,0,0,0.00,0.00,0.00,0.00
2014-11-02 18:10:00,2,50000,0,0.00,2,2,0,2,50000,50000,0,50000,0,0,0,0,0.00,0.00,0.00,0.00
2014-11-02 18:20:00,2,50000,0,0.00,2,2,0,2,50000,50000,0,50000,0,0,0,0,0.00,0.00,0.00,0.00
2014-11-02 18:30:00,2,50000,0,0.00,2,2,0,2,50000,50000,0,50000,0,0,0,0,0.00,0.00,0.00,0.00
2014-11-02 18:40:00,2,50000,0,0.00,2,2,0,2,50000,50000,0,50000,0,0,0,0,0.00,0.00,0.00,0.00
2014-11-02 18:50:00,2,50000,0,0.00,2,2,0,2,50000,50000,0,50000,0,0,0,0,0.00,0.00,0.00,0.00
2014-11-02 19:00:00,2,50000,0,0.00,2,2,0,2,50000,50000,0,50000,0,0,0,0,0.00,0.00,0.00,0.00
2014-11-02 19:10:00,2,50000,0,0.00,2,2,0,2,50000,50000,0,50000,0,0,0,0,0.00,0.00,0.00,0.00
2014-11-02 19:20:00,2,50000,0,0.00,2,2,0,2,50000,50000,0,50000,0,0,0,0,0.00,0.00,0.00,0.00
2014-11-02 19:30:00,2,50000,0,0.00,2,2,0,2,50000,50000,0,50000,0,0,0,0,0.00,0.00,0.00,0.00
2014-11-02 19:40:00,2,50000,0,0.00,2,2,0,2,50000,50000,0,50000,0,0,0,0,0.00,0.00,0.00,0.00
2014-11-02 19:50:00,2,50000,0,0.00,2,2,0,2,50000,50000,0,50000,0,0,0,0,0.00,0.00,0.00,0.00
2014-11-02 20:00:00,2,50000,0,0.00,2,2,0,2,50000,50000,0,50000,0,0,0,0,0.00,0.00,0.00,0.00
2014-11-02 20:10:00,2,50000,0,0.00,2,2,0,2,50000,50000,0,50000,0,0,0,0,0.00,0.00,0.00,0.00
2014-11-02 20:20:00,2,40000,0,0.00,1,2,0,2,0,50000,20000,50000,0,0,0,0,0.00,0.00,0.00,0.00
2014-11-02 20:30:00,1,,,,1,1,0,1,,,,,,,,,,,,
2014-11-02 20:40:00,1,,,,1,1,0,1,,,,,,,,,,,,
2014-11-02 20:50:00,1,,,,1,1,0,1,,,,,,,,,,,,
2014-11-02 21:00:00,2,50000,0,0.00,2,2,0,2,50000,50000,0,50000,0,0,0,0,0.00,0.00,0.00,0.00
2014-11-02 21:10:00,2,40000,0,0.00,1,2,0,2,0,50000,20000,50000,0,0,0,0,0.00,0.00,0.00,0.00
2014-11-02 21:20:00,2,50000,,0.00,1,2,0,2,50000,50000,0,50000,,,,,0.00,0.00,0.00,0.00
2014-11-02 21:30:00,1,25000,,0.00,1,2,0,1,0,50000,25000,25000,,,,,0.00,0.00,0.00,0.00
2014-11-02 21:40:00,1,,,,1,1,0,1,,,,,,,,,,,,
2014-11-02 21:50:00,1,,,,1,1,0,1,,,,,,,,,,,,
2014-11-02 22:00:00,1,50000,,0.00,1,2,0,1,50000,50000,0,50000,,,,,0.00,0.00,0.00,0.00
2014-11-02 22:10:00,1,,,,1,1,0,1,,,,,,,,,,,,
2014-11-02 22:20:00,1,,,,1,1,0,1,,,,,,,,,,,,
2014-11-02 22:30:00,1,,,,1,1,0,1,,,,,,,,,,,,
2014-11-02 22:40:00,1,,,,1,1,0,1,,,,,,,,,,,,
2014-11-02 22:50:00,1,,,,1,1,0,1,,,,,,,,,,,,
2014-11-02 23:00:00,1,,,,1,1,0,1,,,,,,,,,,,,
2014-11-02 23:10:00,1,,,,1,1,0,1,,,,,,,,,,,,
2014-11-02 23:20:00,1,,,,1,1,0,1,,,,,,,,,,,,
2014-11-02 23:30:00,1,,,,1,1,0,1,,,,,,,,,,,,
2014-11-02 23:40:00,1,,,,1,1,0,1,,,,,,,,,,,,
2014-11-02 23:50:00,1,,,,1,1,0,1,,,,,,,,,,,,
